Regional Weather Roundup
Issued by NWS

Home | Current Version | Previous Version | Text Only | Print | Product List | Glossary On
Versions: 1 2 3 4 5 6 7 8 9 10 11 12 13 14 15 16 17 18 19 20 21 22 23 24 25 26 27 28 29 30 31 32 33 34 35 36 37 38 39 40 41 42 43 44 45 46 47 48 49 50
000
ASUS44 KMEG 020610
RWRTN
TENNESSEE HOURLY STATE WEATHER ROUNDUP
NATIONAL WEATHER SERVICE MEMPHIS TN
1200 AM CST WED DEC 02 2020

TNZ002-004-019-021-049-052-054-088>092-020700-
WEST TENNESSEE

CITY           SKY/WX    TMP DP  RH WIND       PRES   REMARKS
MEMPHIS INTL   PTCLDY    31  25  78 CALM      30.28R
NWS MEMPHIS      N/A     27 N/A N/A MISG        N/A
JACKSON        CLEAR     21  18  88 CALM      30.29R
DYERSBURG      CLEAR     24  22  91 CALM      30.29R
SOMERVILLE     CLEAR     25  21  86 CALM      30.26R
COVINGTON      CLEAR     25  23  93 CALM      30.28R
UNION CITY     CLEAR     25  21  86 CALM      30.28R
BOLIVAR        CLEAR     23  21  93 CALM      30.26S
PARIS          CLEAR     23  18  80 CALM      30.27R
HUNTINGDON     CLEAR     23  21  93 CALM      30.27R
LEXINGTON      CLEAR     23  19  86 CALM      30.27R
SELMER         CLEAR     27  21  80 CALM      30.27R
SAVANNAH       CLEAR     25  23  93 CALM      30.27R
$$

TNZ008-025-027-028-033-062-065-066-020700-
NORTH MIDDLE TENNESSEE

CITY           SKY/WX    TMP DP  RH WIND       PRES   REMARKS
NASHVILLE      CLEAR     27  21  78 SE3       30.28S
DICKSON        CLEAR     25  19  80 CALM      30.24F
PORTLAND       CLEAR     23  21  93 CALM      30.26R
CLARKSVILLE    CLEAR     24  19  81 CALM      30.27R
LEBANON        CLEAR     23  21  93 CALM      30.26S
SMYRNA         CLEAR     22  21  96 CALM      30.29S
MURFREESBORO   PTCLDY    25  23  93 CALM      30.26F
COOKEVILLE     CLEAR     19  19 100 NE6       30.24F WCI  11
LIVINGSTON     CLEAR     25  21  86 W5        30.22R WCI  19
GALLATIN       CLEAR     23  21  93 CALM      30.31R
CROSSVILLE     CLEAR     18  15  88 CALM      30.21R
ROCKWOOD       CLEAR     25  21  86 VRB3      30.20F
$$

TNZ061-075-076-078-094-096-097-020700-
SOUTH MIDDLE TENNESSEE

CITY           SKY/WX    TMP DP  RH WIND       PRES   REMARKS
LAWRENCEBURG   CLEAR     21  18  86 CALM      30.24F
LEWISBURG      CLEAR     19  18  93 CALM      30.26F
FAYETTEVILLE   CLEAR     27  21  80 CALM      30.26F
TULLAHOMA      CLEAR     21  19  93 CALM      30.23F
WINCHESTER     CLEAR     21  21 100 CALM      30.24F
MCMINNVILLE    CLEAR     21  21 100 CALM      30.26R
COLUMBIA       CLEAR     21  21 100 CALM      30.26R
SHELBYVILLE    CLEAR     23  21  93 E3        30.26F
$$

TNZ017-018-042-046-047-020700-
NORTHEAST TENNESSEE

CITY           SKY/WX    TMP DP  RH WIND       PRES   REMARKS
TRI CITIES     CLOUDY    29  21  72 SW6       30.18S WCI  23
ELIZABETHTON   CLOUDY    28  21  74 VRB5G13   30.17S WCI  23
GREENEVILLE    CLOUDY    27  23  86 SW5       30.19R WCI  21
$$

TNZ012-013-036-069-073-074-020700-
CENTRAL EAST TENNESSEE

CITY           SKY/WX    TMP DP  RH WIND       PRES   REMARKS
KNOXVILLE      CLEAR     25  22  88 CALM      30.25S
OAK RIDGE      CLEAR     24  21  88 CALM      30.26F
DOWNTOWN KNOXV CLEAR     25  23  93 CALM      30.27S
GATLINBURG     CLEAR     25  23  93 S3        30.25S
MORRISTOWN       N/A     27  21  80 W6        30.21S WCI  20
JACKSBORO      CLEAR     21  19  93 CALM      30.26S
$$

TNZ083-085-099-020700-
SOUTHEAST TENNESSEE

CITY           SKY/WX    TMP DP  RH WIND       PRES   REMARKS
CHATTANOOGA    CLEAR     27  24  89 W3        30.27R
DAYTON         PTCLDY    23  21  93 CALM      30.26R
$$

SKY/WX REPORTED AS FAIR MEANS FEW OR NO CLOUDS BELOW
12 THOUSAND FEET.





USA.gov is the U.S. government's official web portal to all federal, state and local government web resources and services.